Flag for China Weather past 2 weeks in Lanzhou, Gansu, China

Now
45 °F

Light rain. Overcast.


Feels Like: 41 °F
Forecast: 47 / 59 °F
Wind: 6 mph from South

Location: Lanzhou / Zhongchuan

Current Time: Sep 22, 2014 at 10:45:15 AM

Latest Report: Sep 22, 2014 at 10:00 AM


Visibility: 5 mi

Pressure: 30.21 "Hg

Humidity: 93%

Dew point: 43 °F

Location of LanzhouLocation

Historic Weather in Lanzhou — Graph

°F

Lanzhou temperature yesterday

Maximum temperature yesterday: 59 °F (at 1:00 AM)
Minimum temperature yesterday: 50 °F (at 8:00 PM)
Average temperature yesterday: 55 °F

Past Weeks' High & Low Weather Summary

 TemperatureHumidityPressure
High77 °F (Sep 9, 3:00 PM)100% (Sep 9, 6:00 AM)30.27 "Hg (Sep 9, 6:00 AM)
Low45 °F (Sep 19, 7:00 AM)28% (Sep 9, 5:00 PM)29.95 "Hg (Sep 10, 4:00 PM)
Average58 °F76%30.12 "Hg
* Reported Sep 7 9:00 AM — Sep 22 9:00 AM, Lanzhou, Weather by CustomWeather, © 2014

Note: Actual official high and low records may vary slightly from our data, if they occured in-between our weather recording intervals... More about our weather records

Advertising

Lanzhou weather history for previous 24 hours

 ConditionsComfort  
Time TempWeatherWind HumidityBarometerVisibility
9:00 AM
Sep 22
46 °FLight rain. Overcast.3 mph93%30.21 "Hg4 mi
8:00 AM48 °FLight rain. Overcast.1 mph71%30.18 "HgN/A
7:00 AM48 °FOvercast.6 mph66%30.18 "HgN/A
6:00 AM48 °FOvercast.6 mph71%30.15 "HgN/A
5:00 AM50 °FOvercast.1 mph88%30.15 "HgN/A
4:00 AM50 °FOvercast.No wind94%30.15 "HgN/A
3:00 AM50 °FOvercast.1 mph88%30.15 "HgN/A
2:00 AM50 °FOvercast.1 mph88%30.18 "HgN/A
1:00 AM50 °FOvercast.No wind94%30.18 "HgN/A
12:00 AM50 °FLight rain. Overcast.No wind100%30.18 "HgN/A
11:00 PM
Sep 21
50 °FLight rain. Overcast.1 mph100%30.18 "HgN/A
10:00 PM50 °FLight rain. Mostly cloudy.No wind100%30.18 "Hg4 mi
9:00 PM50 °FLight rain. Fog.1 mph100%30.15 "Hg1 mi
8:00 PM50 °FLight rain. Fog.6 mph94%30.12 "Hg3 mi
7:00 PM52 °FLight rain. More clouds than sun.3 mph88%30.09 "HgN/A
6:00 PM52 °FLight rain. More clouds than sun.6 mph94%30.09 "HgN/A
5:00 PM54 °FLight rain. More clouds than sun.10 mph88%30.09 "HgN/A
4:00 PM54 °FLight rain. More clouds than sun.8 mph94%30.07 "HgN/A
3:00 PM55 °FLight rain. More clouds than sun.6 mph88%30.07 "Hg4 mi
2:00 PM55 °FLight rain. More clouds than sun.3 mph88%30.09 "HgN/A
1:00 PM55 °FLight rain. More clouds than sun.8 mph88%30.09 "HgN/A
12:00 PM57 °FLight rain. More clouds than sun.6 mph82%30.09 "HgN/A
11:00 AM59 °FMore clouds than sun.13 mph72%30.12 "HgN/A
10:00 AM59 °FMore clouds than sun.10 mph77%30.12 "HgN/A
Weather by CustomWeather, © 2014

See weather overviewHow to use our weather pages